Location: *
(41.0000°N, 3.8667°W)
Time: 04:35:18
(UTC+00:00)

Daily predictions for brighter satellites

Satellite Brightness Start Highest point End
(mag) Time Altitude Azimuth Time Altitude Azimuth Time Altitude Azimuth
Cosmos 1980 Rocket 4.2 03:23:21 23° ENE 03:23:21 23° ENE 03:26:07 10° NE
ATLAS 3B R/B 4.2 03:27:51 30° N 03:30:07 35° NE 03:37:04 10° ESE
ATLAS 2AS CENTAUR R/B 3.5 03:47:22 45° NNE 03:47:22 45° NNE 03:52:05 10° NNE
Lacrosse 4 Rocket 4.3 03:49:01 15° ENE 03:49:01 15° ENE 03:50:19 10° E
Cosmos 2263 Rocket 3.4 04:00:00 33° NNE 04:01:21 37° ENE 04:06:31 10° SE
Cosmos 2227 Rocket 3.6 04:13:54 27° SSE 04:13:54 27° SSE 04:16:24 10° SSE
Cosmos 2285 Rocket 4.0 04:11:34 75° NE 04:11:54 78° ENE 04:18:17 10° SSE
Gbstr 26 Del rocket 4.1 04:22:25 45° ESE 04:22:25 45° ESE 04:26:40 10° ENE
Cosmos 1484 Rocket 4.5 04:27:04 10° NE 04:30:09 28° E 04:30:40 27° ESE
DELTA 2 R/B (1) 3.4 04:35:55 77° SSW 04:36:05 78° S 04:41:40 10° E
IRAS Rocket 4.1 04:30:50 10° NNE 04:36:23 85° ESE 04:40:09 21° SSW
Cosmos 2219 3.2 04:35:43 49° NNW 04:37:20 82° ENE 04:42:58 10° SSE
S3M 3.9 04:31:22 10° N 04:37:39 85° E 04:43:48 10° S
BREEZE-M DEB (TANK) 4.3 04:39:15 18° E 04:39:15 18° E 04:40:08 10° ENE
Cosmos 1417 Rocket 4.3 04:35:15 10° N 04:41:22 75° W 04:47:27 10° S
SJ 16-02 3.6 04:46:33 14° S 04:46:33 14° S 04:47:11 10° S
BREEZE-M DEB (TANK) 3.9 04:45:30 33° NE 04:45:30 33° NE 04:49:41 10° E
H-2A R/B 3.0 04:40:25 10° N 04:43:10 32° N 04:43:10 32° N
Meteor 1-24 Rocket 3.5 04:43:56 10° SSW 04:49:27 81° W 04:54:51 10° N
SL-8 R/B 3.6 04:49:43 72° NNW 04:49:43 72° NNW 04:54:26 10° ENE
ARGOS 3.3 04:51:03 10° NNE 04:56:30 75° ESE 05:01:54 10° S
Thor Agena Rocket 3.4 04:52:51 10° NNE 04:58:05 85° WNW 05:03:12 10° SSW
Cosmos 2322 Rocket 4.5 04:55:54 10° SSE 05:00:25 25° ESE 05:04:57 10° NE
Meteor 2-20 4.3 04:54:35 10° NNW 05:00:43 74° W 05:06:46 10° S
Meteor 2-20 Rocket 4.4 04:55:41 10° N 05:01:35 80° E 05:07:18 10° S
Cosmos 1980 Rocket 2.5 05:05:10 40° WNW 05:05:11 40° WNW 05:10:28 10° N
Cosmos 2369 3.7 05:07:06 34° WSW 05:09:15 54° WNW 05:14:49 10° NNE
IRS-1D 4.1 05:06:20 10° N 05:09:55 34° NW 05:09:55 34° NW
USA 281 3.1 05:04:19 10° SSE 05:10:54 80° WSW 05:17:30 10° NNW
Cosmos 1378 Rocket 3.7 05:08:52 10° S 05:13:15 73° E 05:17:39 10° NNE
NOSS 3-1 (A) 4.5 05:11:12 28° WNW 05:15:01 45° WSW 05:23:32 10° S
Cosmos 1674 Rocket 4.1 05:11:03 10° S 05:15:17 59° E 05:19:32 10° NNE
Atlas Centaur 2 3.2 05:14:33 16° SSW 05:15:19 17° S 05:17:48 10° SSE
ATLAS CENTAUR R/B 3.6 05:18:24 11° N 05:18:24 11° N 05:18:42 10° N
Cosmos 44 Rocket 4.4 05:18:52 24° SW 05:18:52 24° SW 05:21:39 10° SSW
Meteor 2-5 Rocket 3.9 05:12:20 10° SSW 05:17:53 47° WNW 05:23:22 10° N
ARIANE 6 FM1 Upper Stage 2.8 05:16:08 15° SSW 05:19:29 75° SE 05:23:44 10° NE
FengYun 1-2 T 4.3 05:13:52 10° NNE 05:19:32 83° ESE 05:25:12 10° SSW
Cosmos 371 Rocket 3.2 05:16:34 13° NNW 05:20:57 86° WSW 05:25:46 10° SSE
ATLAS 3B R/B 3.0 05:15:09 17° NW 05:21:26 66° WSW 05:28:55 10° SSE
Cosmos 1992 Rocket 3.9 05:16:43 10° SSW 05:21:54 68° WNW 05:27:07 10° NNE
COSMO-SKYMED 1 2.9 05:18:06 10° SSE 05:22:24 68° ENE 05:26:44 10° N
Okean 2 Rocket 3.7 05:18:24 10° N 05:22:50 57° E 05:27:11 10° SSE
Cosmos 1697 Rocket 4.4 05:24:29 15° NNW 05:24:29 15° NNW 05:26:40 10° N
Cosmos 1939 Rocket 3.8 05:22:19 10° N 05:24:25 27° NNW 05:24:25 27° NNW
Lacrosse 4 Rocket 1.6 05:24:50 37° WNW 05:25:53 47° WSW 05:29:48 10° S
NOAA 12 4.3 05:23:01 10° NNE 05:28:22 74° ESE 05:33:39 10° S
Cosmos 2242 Rocket 4.4 05:31:43 28° WNW 05:31:43 28° WNW 05:35:17 10° NNW
NOSS 2-1 (D) 4.5 05:29:47 13° NNW 05:33:13 49° NE 05:38:27 10° SE
Cosmos 2098 Rocket 3.9 05:30:47 10° N 05:34:13 38° ENE 05:37:10 10° SSE
ATLAS 2AS CENTAUR R/B 4.0 05:34:49 19° WNW 05:37:03 21° NNW 05:42:13 10° NNE
SJ-11-01 4.3 05:33:55 10° NNE 05:38:36 85° ESE 05:43:16 10° SSW
Cosmos 2315 Rocket 4.3 05:33:25 10° NNW 05:39:26 45° W 05:45:23 10° SSW
USA 59 Rocket 0.7 05:39:52 11° NNW 05:43:41 59° NE 05:49:13 10° SE
Cosmos 2237 4.1 05:39:12 10° SSW 05:44:50 67° WNW 05:50:31 10° NNE
Cosmos 2263 Rocket 2.9 05:41:46 17° NW 05:45:07 31° WSW 05:49:57 10° SSW
CBERS-1 4.2 05:43:51 10° N 05:48:45 48° WNW 05:53:39 10° SW
SL-08 R/B 4.5 05:42:49 10° S 05:48:55 89° E 05:55:06 10° N
Cosmos 2082 4.3 05:45:00 12° NW 05:49:38 36° WSW 05:54:43 10° S
Cosmos 2360 Rocket 3.0 05:46:47 10° S 05:52:14 55° ESE 05:57:43 10° NNE
Cosmos 1437 Rocket 3.0 05:49:04 10° SW 05:52:24 37° WNW 05:55:48 10° N
Cosmos 2151 Rocket 3.7 05:51:40 10° NNW 05:55:58 51° W 06:00:18 10° S
Cosmos 2084 Rocket 3.8 05:58:45 10° WSW 06:02:53 42° NW 06:06:56 10° NNE
SL-08 RB Rocket 4.5 05:59:09 10° N 06:03:09 30° WNW 06:07:09 10° SW
Cosmos 1484 Rocket 4.1 06:01:12 10° NNW 06:03:25 16° WNW 06:05:04 12° W
BREEZE-M DEB (TANK) 4.2 05:59:20 13° WNW 06:03:26 25° NNW 06:05:45 10° NE
Cosmos 1606 3.3 06:00:53 10° N 06:04:12 50° E 06:07:28 10° SSE
Okean 1 Rocket 3.0 05:59:56 10° NNW 06:04:23 73° W 06:08:49 10° S
SL-16 R/B 2.2 05:58:55 10° SW 06:04:29 58° WNW 06:10:06 10° NNE
Gbstr 26 Del rocket 3.9 06:04:38 13° W 06:08:33 41° NNW 06:13:52 10° NE
SKYMED 2 4.2 06:06:37 10° SSW 06:10:33 34° W 06:14:32 10° NNW
NOSS 2-1 (E) 3.8 06:07:21 10° NW 06:11:27 82° SW 06:17:15 10° SSE
EXPRESS MD2 2.9 06:08:41 10° WSW 06:12:15 44° NNW 06:14:39 10° NE
CZ-2D R/B 2.9 06:10:01 10° N 06:13:34 83° WNW 06:17:04 10° SSW
ADEOS Rocket 3.6 06:10:33 10° NNE 06:17:43 74° ESE 06:24:07 10° S
USA 229 DEB 4.3 06:11:01 10° NW 06:18:24 53° WSW 06:26:17 10° S
USA 229 4.3 06:11:09 10° NW 06:18:32 53° WSW 06:26:24 10° S
CZ-2D R/B 3.5 06:15:15 10° NNE 06:19:12 78° ESE 06:23:13 10° S
SJ-12 3.8 06:17:53 10° N 06:21:47 59° WNW 06:25:38 10° SSW
DELTA 2 R/B (1) 3.9 06:16:52 10° W 06:22:22 61° SSW 06:27:50 10° ESE
Cosmos 2333 Rocket 2.2 06:24:39 10° SSW 06:30:21 74° WNW 06:36:04 10° NNE
USA 215 3.3 06:24:09 10° NE 06:30:36 66° NW 06:37:03 10° WSW
